Weather in Druzhba

Russia / Tyva Republic     51°00′24″N   90°13′11″E
temp.,
°C
wind,
m/s
gust,
m/s
humid.,
%
clouds,
%
prec.,
mm/h
press.,
hPa
HPBL,
m
23 may, mon
mon2301:00+19w122497 0.0 100520
04:00+16w11344 0.0 100912
07:00+19ssw113342 0.0 1012100
10:00+23e323018 0.0 10121328
13:00+24nne753083 0.0 10121964
16:00+23nnw333350 0.0 10132089
19:00+23ne333390 0.0 10141981
22:00+20nne4641100 0.0 1017506
24 may, tue
tue2401:00+16ne365491 0.0 1019299
04:00+14nnw116478 0.0 101917
07:00+15nne1265100 0.5 1020478
10:00+17nne225842 0.0 10191066
13:00+20ne114869 0.0 10171449
16:00+23ne33403 0.2 10141392
19:00+23sw224365 0.8 1013901
22:00+17ssw21657 0.8 101617
25 may, wed
wed2501:00+16ssw116540 0.8 101511
04:00+15ssw117065 0.0 101511
07:00+17ene116114 0.0 1015171
10:00+21ene214864 0.0 1013753
13:00+25ene213548 0.0 10091055
16:00+29nw2624100 0.1 10062202
19:00+25nw2434100 0.1 1009429
22:00+16wnw347399 0.8 1015210
26 may, thu
thu2601:00+16ssw2278100 2.6 1014154
04:00+16e1174100 0.0 101345
07:00+17ssw007093 0.0 1013228
10:00+21ene335043 0.4 1012930
13:00+24ne433794 0.6 10102222
16:00+24ne13325 0.0 10081888
19:00+24ene443696 0.0 10091158
22:00+20e114611 0.0 101011
27 may, fri
fri2701:00+17nne11530 0.0 101011
04:00+15ene01590 0.0 101011
07:00+17ne11525 0.0 1010175
10:00+21ne1140100 0.0 1008743
13:00+25e2326100 0.0 10061729
16:00+28ene451783 0.0 10043336
19:00+26nne762197 0.0 10051792
22:00+19sse22323 0.0 100926